Location: Piotrkow Trybunalski
(51.4000°N, 19.6830°E)
Time: 01:12:40
(UTC+02:00)

STRAND 1 - Pass Details

Date: 02 April 2023
Orbit: 767 x 779 km, 98.4° (Epoch: 06 June)

Event Time Altitude Azimuth Distance (km) Brightness Sun altitude
Rises 19:57:18 0° 13° (NNE) 3,253 ? -7.2°
Reaches altitude 10° 19:59:38 10° 12° (NNE) 2,321 ? -7.5°
Maximum altitude 20:04:44 74° 288° (WNW) 803 ? -8.3°
Drops below altitude 10° 20:09:47 10° 204° (SSW) 2,304 ? -9.0°
Sets 20:12:05 0° 203° (SSW) 3,227 ? -9.3°
